Location: Observatory
(52.1446°N, 0.4624°W)
Time: 14:01:23
(UTC+01:00)

ISS - Pass Details

Date: 26 May 2018
Orbit: 402 x 407 km, 51.6° (Epoch: 24 May)

Event Time Altitude Azimuth Distance (km) Brightness Sun altitude
Rises 01:46:28 0° 282° (WNW) 2,321 0.0 -16.0°
Reaches altitude 10° 01:48:42 10° 270° (W) 1,459 -1.1 -16.0°
Enters shadow 01:49:50 18° 257° (WSW) 1,085 -1.9 -15.9°
